Theta_e
315 315 316 316 316 316 316 316 317 319 319 318 318 318 318 318 319 319 319 320 321 321 321 321 320 324 325 327 330 329 341 351 342 348 347 346 345 346 342 338 340 340 341 345
315 316 317 316 315 316 316 317 317 317 318 318 317 317 318 318 319 320 321 321 321 321 321 321 321 319 322 327 326 328 332 335 349 346 343 344 346 345 345 343 341 339 338 342
316 316 316 315 315 315 315 315 315 315 316 317 317 317 318 318 319 320 320 320 320 322 322 323 322 320 320 323 325 324 327 331 333 343 344 342 338 342 343 344 344 341 338 338
315 316 316 315 314 314 314 315 315 316 316 316 317 318 318 319 319 319 319 320 319 320 321 322 322 320 321 320 321 324 325 327 327 326 331 338 347 342 340 341 341 342 339 338
316 315 315 315 314 314 315 315 315 315 316 316 316 316 316 317 317 317 317 317 318 318 318 319 320 320 319 318 319 322 324 324 325 327 329 331 333 333 340 346 345 344 344 343
316 316 316 316 315 315 315 315 315 315 315 316 316 317 317 317 319 318 317 317 317 318 319 319 319 319 318 318 318 321 322 324 325 325 326 328 332 332 335 336 335 344 345 342
319 317 317 317 316 315 314 315 316 318 320 319 318 321 319 318 318 318 317 316 316 317 321 320 320 319 319 318 318 319 320 322 323 324 324 325 325 327 332 333 335 332 336 340
321 322 319 319 320 319 318 316 318 322 322 323 322 321 318 318 317 317 316 316 316 316 321 321 321 319 318 318 318 318 318 320 321 323 324 324 324 326 327 328 329 330 333 335
320 321 318 317 319 319 320 317 317 321 322 322 319 320 320 317 317 316 316 316 316 316 318 318 319 319 318 318 318 318 319 320 321 322 324 326 325 325 326 326 326 328 333 337
317 317 315 318 318 317 317 317 320 321 322 319 315 316 321 321 317 317 316 316 316 317 317 318 319 319 318 317 317 318 318 319 319 320 322 322 322 328 327 325 327 329 328 324
317 319 315 318 320 319 321 316 316 317 323 324 321 320 320 320 320 319 317 317 317 317 317 317 317 317 317 317 317 317 320 318 320 322 322 322 322 323 327 328 326 328 329 330
317 318 318 317 316 317 317 318 319 325 324 322 323 320 319 319 317 320 318 317 316 318 318 317 317 317 316 317 317 317 317 319 318 317 318 319 319 321 324 327 329 326 326 328
316 318 320 315 317 318 319 317 317 318 322 322 324 322 319 319 319 319 319 318 319 318 318 318 318 317 317 317 317 316 316 316 316 317 318 319 320 320 321 323 329 330 329 329
312 314 315 316 313 318 317 317 316 316 322 319 318 316 318 318 317 319 319 319 319 318 319 320 319 319 318 318 317 316 316 315 315 315 316 318 320 320 322 323 327 329 334 332
313 314 313 313 313 314 316 317 317 317 315 317 316 315 315 317 318 319 317 318 319 319 319 319 319 319 319 317 317 315 315 314 315 315 316 316 319 320 322 322 322 327 330 333
313 317 316 316 315 314 315 314 316 313 314 314 313 314 314 318 318 318 317 317 318 318 317 317 317 318 317 317 316 313 313 313 313 314 314 316 318 319 321 321 324 327 330 332
313 317 317 318 314 314 313 316 317 318 317 317 319 317 317 317 318 319 318 318 319 316 315 316 316 317 317 316 315 314 313 313 314 314 314 314 316 318 319 321 322 324 328 331
313 314 316 317 315 316 314 315 318 318 318 317 316 317 317 317 316 316 315 315 316 315 315 316 316 317 316 315 314 313 313 313 312 314 314 314 314 317 318 320 321 323 327 331
314 314 315 316 317 315 314 318 318 317 316 318 318 316 315 315 314 314 314 315 315 315 315 315 314 313 313 313 312 312 312 312 312 312 313 314 313 314 318 319 321 324 329 330
316 315 317 317 318 316 315 318 316 315 316 317 316 316 315 314 317 317 314 313 313 314 314 313 312 312 313 312 312 313 313 313 313 313 313 314 313 313 314 319 320 323 327 329
317 317 317 316 318 315 318 316 315 317 320 317 315 314 314 314 313 313 313 313 313 314 313 311 311 312 312 312 311 312 312 313 312 312 313 314 314 313 314 320 322 323 328 329
319 318 319 318 321 321 316 315 318 317 317 315 313 312 312 312 311 311 311 311 311 311 311 311 311 311 311 309 310 311 312 311 311 312 314 315 315 316 318 321 322 324 327 330
320 319 320 318 320 319 315 315 315 315 315 313 314 312 311 311 309 309 308 308 308 308 307 307 308 308 308 308 308 309 311 312 312 313 314 315 316 317 318 320 323 325 327 331
315 315 317 317 315 313 312 313 312 312 313 313 311 311 310 309 307 306 307 306 306 306 305 305 306 307 308 308 308 308 309 311 313 313 314 316 317 318 319 320 322 325 330 333
315 313 312 312 312 310 310 309 311 310 311 312 310 308 307 306 306 305 305 305 304 304 305 305 305 306 307 307 307 308 310 311 312 313 314 317 317 318 320 320 322 327 331 334
312 310 310 310 308 308 309 309 309 311 311 310 309 308 306 305 304 303 303 303 303 303 302 301 303 303 305 305 307 308 309 311 313 314 316 318 319 320 321 324 322 324 333 336
Wind_Speed
15 13 13 18 18 21 20 24 19 20 12 16 15 14 16 16 16 16 14 13 13 13 12 8 11 20 18 8 8 6 15 10 17 25 24 17 19 21 30 33 27 26 25 28
16 16 17 17 19 21 14 16 17 21 20 16 11 15 16 19 19 17 15 15 14 14 14 12 12 8 9 14 8 7 9 18 9 19 20 19 18 22 28 27 29 35 23 28
17 18 16 12 13 12 14 17 18 21 19 17 12 15 16 24 23 22 17 13 13 14 14 14 10 7 9 3 10 6 5 6 16 12 15 20 24 23 23 26 26 24 32 33
16 18 14 8 15 13 18 18 19 16 19 12 12 16 20 19 22 23 20 16 11 14 9 8 7 7 7 11 7 8 4 4 6 13 13 15 17 25 28 27 29 33 30 39
18 17 14 14 15 16 15 18 12 14 14 13 20 13 17 18 15 12 10 7 6 6 5 8 9 12 9 4 7 4 6 4 2 3 8 9 12 19 22 21 27 30 31 37
21 22 19 16 12 12 11 16 18 13 13 15 21 19 18 17 20 18 15 13 10 11 9 5 10 9 11 13 11 14 6 6 7 7 6 6 13 19 18 15 15 16 26 25
22 22 17 22 18 15 13 11 10 9 13 16 12 15 17 11 9 20 18 14 11 8 10 10 11 11 9 6 8 8 9 10 7 10 9 9 13 17 19 20 16 24 21 16
11 20 12 7 15 5 13 16 10 9 10 12 14 9 8 5 9 10 9 7 4 4 11 12 10 4 7 5 3 5 10 7 8 6 9 11 11 15 18 20 21 24 26 18
12 10 4 26 12 12 19 17 14 10 18 15 11 18 12 5 12 12 9 9 9 4 7 7 6 7 7 5 5 8 9 10 10 10 13 11 13 18 19 20 23 25 23 24
13 19 8 4 7 12 21 14 8 9 12 17 14 15 7 13 14 12 11 9 7 6 3 2 5 9 14 14 9 8 12 15 16 17 16 15 17 16 19 19 22 24 24 28
12 17 15 3 3 7 19 15 11 10 9 4 8 6 5 10 9 8 2 5 4 7 9 7 6 11 12 8 11 14 15 16 18 21 20 18 18 19 17 19 22 23 24 26
10 5 8 18 15 20 17 9 10 6 9 12 12 16 9 5 4 10 14 9 9 14 8 8 8 9 10 11 13 13 13 14 15 18 22 22 22 23 19 19 21 24 26 28
8 4 5 10 14 14 9 22 14 11 11 15 6 9 5 6 10 9 16 17 16 12 9 10 10 9 11 14 14 15 14 16 21 23 22 23 21 20 22 23 23 24 26 28
2 9 12 13 16 7 3 15 21 14 9 15 18 19 17 6 6 15 15 22 24 17 9 6 5 8 10 9 11 15 18 20 20 24 26 29 24 22 23 22 22 25 26 28
4 12 14 17 19 22 16 17 20 21 18 17 17 22 18 15 15 16 19 26 16 15 15 12 9 9 10 14 19 15 18 20 20 23 31 34 30 25 26 25 26 28 28 28
6 11 12 16 20 21 20 18 26 25 22 22 22 23 17 19 19 12 10 12 15 17 17 17 16 15 14 16 17 15 18 23 20 24 31 33 32 23 23 26 29 29 29 29
6 5 8 10 16 14 15 11 15 16 10 10 11 19 22 22 12 15 10 10 13 18 18 17 16 16 13 18 20 16 18 22 24 25 30 28 30 23 25 28 27 29 30 30
9 11 8 10 16 15 13 9 12 14 8 11 14 9 17 14 16 19 19 19 18 18 17 16 14 16 14 17 19 20 21 20 23 28 27 27 28 37 28 30 31 31 32 30
9 6 5 4 9 15 10 8 7 5 15 14 16 19 21 22 24 21 19 19 19 20 18 17 20 20 23 20 21 24 28 23 25 32 32 29 33 34 25 29 29 26 27 25
4 7 4 7 5 5 10 18 19 16 11 19 21 21 23 24 18 16 21 24 25 24 21 19 27 25 22 23 24 24 29 26 23 27 29 30 30 32 29 30 24 25 28 20
3 3 10 9 6 8 14 21 17 9 11 23 22 22 21 20 17 26 23 24 24 25 25 32 29 22 23 22 25 26 27 23 26 28 30 30 33 29 33 32 25 26 26 21
5 3 4 5 4 4 18 14 10 13 17 19 22 20 23 23 25 27 29 27 26 25 27 31 24 24 25 25 26 25 23 29 27 26 26 29 31 30 29 24 23 25 26 23
3 3 3 4 5 13 16 13 14 15 19 20 24 23 23 24 27 31 27 25 24 24 21 30 25 26 30 29 28 24 29 27 27 26 28 28 29 27 28 26 24 22 25 24
4 9 3 8 6 18 18 16 17 22 22 23 25 22 23 25 28 27 24 21 21 20 20 27 25 21 22 28 29 30 30 28 25 25 28 29 27 26 26 25 24 23 25 25
3 8 9 12 9 18 9 19 22 25 26 26 22 22 23 28 27 22 22 22 22 21 21 26 21 20 23 30 30 31 30 28 27 28 28 26 24 24 22 24 24 27 29 31
4 2 2 5 18 13 19 19 27 25 21 21 20 25 26 23 24 24 22 21 21 22 24 23 23 26 30 34 32 32 30 29 28 23 22 22 20 22 23 22 15 18 29 32
Wind_Direction
252 235 240 248 244 242 255 272 290 291 291 190 216 246 266 247 224 213 228 235 230 235 235 186 207 142 141 154 159 160 147 169 195 187 194 189 203 240 238 232 233 237 238 224
243 254 251 264 273 275 286 287 284 280 283 290 250 241 257 269 270 263 220 215 229 214 205 213 217 195 162 156 173 192 176 156 174 217 204 212 201 216 227 227 233 230 231 235
261 278 286 286 288 268 266 268 271 275 275 271 264 273 273 258 257 258 247 245 241 229 211 191 199 200 190 211 170 196 216 156 164 191 214 252 246 248 233 228 231 240 230 234
270 271 264 288 274 265 271 260 259 276 259 266 275 271 265 252 258 215 233 232 243 231 191 146 165 184 184 232 193 174 198 187 209 185 203 194 221 230 240 238 239 239 235 235
259 272 262 230 255 271 276 310 300 294 289 277 260 263 263 270 260 198 205 194 223 212 208 191 163 192 177 222 226 190 197 217 259 232 212 220 258 264 248 240 233 229 232 230
269 276 271 258 248 243 292 303 288 256 258 259 257 256 263 259 247 187 167 181 181 179 172 177 131 139 183 205 198 196 191 212 196 233 231 240 260 272 281 260 253 244 254 253
264 267 289 267 254 236 238 261 272 275 254 245 286 287 243 240 261 157 161 175 172 167 142 164 174 192 191 185 229 220 209 209 220 216 223 232 246 266 271 284 284 278 279 275
297 294 340 306 291 291 284 231 229 258 269 298 315 277 236 203 129 76 86 107 152 196 174 189 179 200 216 230 195 340 339 291 257 265 265 247 242 265 271 274 273 271 278 267
266 257 313 307 238 177 241 250 239 241 254 265 243 262 289 284 143 143 163 178 200 185 239 207 154 216 252 246 226 198 236 274 276 272 267 259 251 248 253 260 267 269 271 295
300 290 305 7 345 269 235 233 247 238 274 269 267 254 2 303 196 177 190 188 179 179 248 264 238 242 236 229 238 241 242 235 240 250 263 266 265 263 248 251 256 264 266 264
353 306 283 140 194 192 284 238 233 247 197 233 283 284 298 21 5 12 321 189 175 213 225 251 285 306 311 285 239 236 230 241 244 239 242 248 258 260 262 258 255 254 257 261
280 246 289 289 278 230 253 223 216 240 279 275 270 267 199 186 277 319 285 269 238 233 231 222 223 257 290 301 303 308 314 301 275 268 270 252 255 261 253 260 256 255 260 260
357 6 330 329 321 357 351 324 274 268 268 246 239 271 246 330 48 282 315 312 265 252 256 237 225 222 242 252 260 270 284 298 301 305 290 284 246 262 262 260 263 258 253 256
340 281 261 282 294 164 241 283 301 275 262 267 256 271 266 199 266 295 324 304 284 279 285 301 266 259 288 286 285 285 284 279 285 296 291 284 271 262 262 263 266 268 263 251
276 284 285 288 298 290 224 231 251 267 256 252 268 272 276 274 231 205 248 238 310 330 320 300 304 315 320 305 296 304 308 300 301 303 303 277 269 262 260 260 266 263 263 263
325 292 294 289 283 280 302 250 230 244 251 255 264 272 294 334 346 324 304 347 331 313 304 307 308 304 299 307 309 296 297 297 289 287 278 295 259 254 263 260 258 261 258 261
289 281 313 289 296 291 271 354 319 343 332 331 293 315 314 311 351 299 324 305 244 270 296 290 300 298 291 284 278 279 272 275 275 270 272 286 296 258 262 261 260 261 261 261
266 281 293 286 295 284 304 343 36 332 292 261 271 286 340 337 326 319 317 303 301 302 300 298 290 286 306 306 301 297 284 264 266 274 266 268 272 272 249 254 256 254 255 253
251 264 285 265 293 291 307 354 42 349 308 20 355 340 325 323 318 303 313 314 318 314 299 286 291 304 297 285 284 286 278 264 271 260 260 263 267 274 277 256 258 264 249 251
244 232 245 309 307 301 1 4 351 323 276 359 339 330 323 322 309 308 324 319 308 303 301 295 292 294 290 292 289 282 271 259 253 259 259 259 254 258 269 267 266 274 276 266
213 209 232 249 262 268 26 349 344 330 324 328 330 319 315 308 298 303 305 304 306 305 303 296 292 286 287 287 285 273 266 260 254 258 259 251 250 252 259 254 249 265 271 269
222 222 225 256 252 279 1 351 353 315 307 312 315 310 322 319 314 310 303 301 302 301 300 296 296 290 285 278 271 265 259 258 255 254 260 254 247 246 251 248 251 259 262 260
26 29 302 315 302 324 352 337 319 317 320 329 315 322 309 308 315 308 300 296 294 291 289 288 283 276 271 266 261 262 264 261 260 254 251 250 248 248 242 244 246 253 257 248
11 28 332 337 344 336 328 318 336 331 316 318 304 316 323 313 305 300 297 291 290 286 284 280 276 270 267 264 263 258 260 256 251 246 252 246 238 236 242 244 250 253 248 237
3 332 347 293 318 336 311 326 320 313 304 298 320 323 318 306 300 296 296 298 291 285 279 274 270 266 264 264 259 257 254 246 244 243 245 241 237 237 242 250 255 251 240 213
28 36 301 278 320 299 294 302 297 295 323 323 324 324 321 313 307 304 297 293 290 285 284 274 262 260 259 258 254 251 247 247 239 236 234 233 228 227 233 236 220 240 229 200